Home > Weather > Włocławek > Past weeks

Flag for Poland Past Weather in Włocławek, Poland — Yesterday and Last 2 Weeks

Now
63 °F

Mild.


Feels Like: 63 °F
Forecast: 56 / 70 °F
Wind: 1 mph from West

Location: Plock

Current Time: Jul 31, 2016 at 3:45:52 AM

Latest Report: Jul 31, 2016 at 3:00 AM


Visibility: 14 mi

Pressure: 29.89 "Hg

Humidity: 86%

Dew Point: 58 °F

Location of WłocławekLocation

Past Weather in Włocławek — Graph

°F

Włocławek Temperature Yesterday

Maximum temperature yesterday: 80 °F (at 5:00 PM)
Minimum temperature yesterday: 60 °F (at 5:00 AM)
Average temperature yesterday: 70 °F

High & Low Weather Summary for the Past Weeks

 TemperatureHumidityPressure
High86 °F (Jul 26, 5:00 PM)98% (Jul 20, 7:00 AM)30.20 "Hg (Jul 20, 7:00 AM)
Low49 °F (Jul 21, 5:00 AM)31% (Jul 21, 3:00 PM)29.84 "Hg (Jul 30, 5:00 PM)
Average67 °F72%30.04 "Hg
* Reported Jul 16 2:00 AM — Jul 31 2:00 AM, Włocławek, Weather by CustomWeather, © 2016

Note: Actual official high and low records may vary slightly from our data, if they occured in-between our weather recording intervals... More about our weather records

Advertising

Włocławek Weather History for the Previous 24 Hours

Scroll right to see more
 ConditionsComfort  
Time TempWeatherWind HumidityBarometerVisibility
2:00 AM
Sun, Jul 31
66 °FMild.1 mph79%29.89 "Hg18 mi
1:00 AM65 °FMild.1 mph80%29.90 "Hg14 mi
12:00 AM68 °FMild.1 mph78%29.89 "Hg10 mi
11:00 PM
Sat, Jul 30
70 °FMild.No wind69%29.88 "Hg25 mi
10:00 PM70 °FMild.No wind67%29.88 "Hg31 mi
9:00 PM73 °FMild.2 mph58%29.88 "Hg31 mi
8:00 PM74 °FMild.2 mph57%29.86 "Hg28 mi
7:00 PM78 °FWarm.5 mph49%29.85 "Hg25 mi
6:00 PM78 °FWarm.3 mph48%29.85 "Hg25 mi
5:00 PM80 °FWarm.5 mph48%29.84 "Hg22 mi
4:00 PM78 °FWarm.6 mph51%29.85 "Hg19 mi
3:00 PM78 °FWarm.5 mph59%29.85 "Hg19 mi
2:00 PM78 °FWarm.3 mph55%29.86 "Hg18 mi
1:00 PM77 °FWarm.3 mph63%29.87 "Hg19 mi
12:00 PM72 °FMild.2 mph67%29.88 "Hg19 mi
11:00 AM68 °FRain. Cloudy.2 mph80%29.90 "Hg7 mi
10:00 AM72 °FMild.5 mph68%29.88 "Hg19 mi
9:00 AM69 °FMild.2 mph81%29.89 "Hg9 mi
8:00 AM66 °FMild.1 mph86%29.89 "Hg7 mi
7:00 AM63 °FFog.2 mph94%29.89 "Hg3 mi
6:00 AM61 °FFog.1 mph97%29.89 "Hg2 mi
5:00 AM60 °FFog.1 mph97%29.88 "Hg2 mi
4:00 AM60 °FFog.1 mph96%29.88 "Hg2 mi
3:00 AM62 °FFog.No wind93%29.89 "Hg3 mi
Weather by CustomWeather, © 2016

See weather overviewHow to use our weather pages